[[{"header":{"parameterUnit":"m.s-1","parameterCategory":1,"la1":30.2991,"la2":30.254,"lo1":-89.0895,"lo2":-89.0444,"dy":0.0017,"dx":0.0017,"nx":28,"ny":28,"refTime":"2024-07-16T03:00:00:Z","depth":0,"parameterNumber":2,"parameterNumberName":"U-component_of_WINDS"},"data":[0,0,0,0,0,0,0,0,0,0,0,0,0,0,0,0,0,0,0,0,0,0,0,0,0,0,0,0,0,0,0,0,0,0,0,0,0,0,0,0,0,0,0,0,0,0,0,0,0,0,0,0,0,0,0,0,0,0,2.9741,2.9742,0,2.9862,2.9863,2.9864,2.9845,2.9843,2.9841,2.9839,2.9962,2.9967,2.9972,0,0,0,0,0,0,0,0,0,0,0,0,0,2.9492,2.9496,2.9741,2.9742,2.9744,2.9861,2.9863,2.9865,2.9845,2.9843,2.984,2.9838,2.996,2.9967,2.9973,0,0,0,0,0,0,0,0,0,0,0,0,0,2.9605,2.9498,2.974,2.9748,2.975,2.9861,2.9863,2.9865,2.9846,2.9843,2.984,2.9837,2.9958,2.9966,2.9974,3.0084,0,0,2.9998,3.0001,0,0,0,0,0,0,0,0,2.9598,2.9614,2.9746,2.9748,2.975,2.9835,2.982,2.9939,2.9847,2.981,2.9839,2.9835,2.9922,2.9933,2.9962,3.009,3.0095,2.9998,3.0003,3.0006,3.0009,0,0,0,0,0,0,0,2.9591,2.9609,2.9788,2.9747,2.975,2.9745,2.9758,2.9843,2.9882,2.9813,2.9811,2.9826,2.9923,2.9955,2.9965,3.0097,2.9998,3.0005,3.001,3.0013,3.032,3.0323,0,0,0,0,0,0,2.9581,2.9602,2.9785,2.9792,2.9665,2.9752,2.9766,2.9811,2.9881,2.9889,2.9829,2.9825,2.9943,2.9956,2.9969,3.0102,3.0006,3.0014,3.0018,3.0316,3.032,3.0324,0,0,0,0,0,0,2.9575,2.9597,2.978,2.9697,2.972,2.976,2.981,2.9815,2.9847,2.9893,2.99,2.9854,2.9941,2.9958,3.0055,3.0106,3.0017,3.0024,3.0312,3.0317,3.0322,3.0369,0,0,0,0,0,0,2.9568,2.9595,2.9638,2.9698,2.9724,2.9864,2.9813,2.982,2.986,2.9857,2.9919,2.9926,2.994,3.0044,3.0063,3.0115,3.003,3.0308,3.0314,3.0321,3.0363,3.0375,3.0385,0,0,0,0,0,2.956,2.9647,2.964,2.9663,2.9779,2.9867,2.9882,2.9897,2.9865,2.9908,2.9937,2.9924,3.0098,3.0054,3.0076,3.0131,3.0304,3.0312,3.032,3.0358,3.0373,3.0385,0,0,0,0,0,0,2.9592,2.9655,2.9648,2.9758,2.9807,2.9864,2.9919,2.9912,2.9972,2.9965,2.9981,2.9995,3.0093,3.0122,3.0072,3.024,3.0196,3.0209,3.0218,3.0232,3.0243,3.0234,3.0037,0,0,0,0,0,2.9612,2.9679,2.973,2.9822,2.9847,2.9878,2.9918,2.9924,2.9976,2.9997,3.0034,3.0084,3.015,3.0193,3.0256,3.0367,3.038,3.0416,3.0427,3.0436,3.0446,3.0505,3.0522,3.035,3.035,3.0349,0,0,2.9653,2.9696,2.9737,2.9829,2.9868,2.9936,2.9896,2.9971,3.0021,3.0008,3.0102,3.013,3.0188,3.0292,3.034,3.0319,3.0496,3.0446,3.0453,3.0458,3.0515,3.0531,3.0546,3.0355,3.0354,3.0353,0,0,2.9764,2.9804,2.9883,2.9923,2.9983,3.0003,3.0022,3.008,3.0099,3.0193,3.0184,3.0244,3.0358,3.0398,3.0434,3.0559,3.0549,3.0579,3.0637,3.0695,3.0708,3.072,3.0763,3.0779,3.0589,3.059,3.059,0,2.9808,2.9911,2.9925,3.0,3.004,3.0032,3.0112,3.015,3.0227,3.0255,3.023,3.0371,3.041,3.0522,3.0553,3.0583,3.0604,3.0572,3.0705,3.0717,3.0729,3.077,3.0786,3.0593,3.0592,3.0592,3.0592,0,2.9961,3.0033,3.009,3.0165,3.0211,3.0289,3.0314,3.0359,3.0362,3.0384,3.0479,3.0525,3.0596,3.0624,3.0628,3.0737,3.0722,3.0702,3.0657,3.0748,3.0787,3.0803,3.0597,3.0596,3.0595,3.0594,0,0,3.0096,3.0176,3.0197,3.023,3.0295,3.035,3.0427,3.0496,3.0534,3.0588,3.0651,3.0747,3.0728,3.0769,3.0777,3.0828,3.0922,3.0801,3.0802,3.082,3.1043,3.1057,3.1075,3.0916,3.0919,3.0921,3.1038,0,3.0211,3.0346,3.0361,3.0481,3.0546,3.0539,3.0605,3.0652,3.0675,3.0733,3.0759,3.0826,3.0797,3.0821,3.0871,3.0899,3.0966,3.0892,3.0974,3.0977,3.0958,3.1096,3.1111,3.1219,3.1053,3.1056,3.1058,0,3.0364,3.0421,3.0548,3.0602,3.063,3.069,3.0754,3.0811,3.0863,3.0876,3.0921,3.0922,3.1,3.0953,3.106,3.1009,3.1044,3.1063,3.1067,3.1074,3.1022,3.1105,3.1254,3.1269,3.1082,3.108,3.1078,0,3.0447,3.0556,3.0646,3.0674,3.0741,3.0782,3.0812,3.0861,3.0902,3.0958,3.0984,3.1049,3.1084,3.1134,3.1152,3.1117,3.1258,3.1213,3.127,3.1269,3.1299,3.1296,3.1453,3.1324,3.1323,3.1323,3.1323,0,3.0574,3.0651,3.0683,3.0738,3.0825,3.084,3.0925,3.0952,3.0996,3.1056,3.1054,3.1109,3.1131,3.119,3.1205,3.129,3.1306,3.1318,3.1321,3.1318,3.1316,3.134,3.1332,3.1327,3.1326,3.1326,3.1325,0,3.0681,3.0706,3.0802,3.0857,3.0872,3.0933,3.098,3.1032,3.1054,3.113,3.1148,3.1183,3.1252,3.1276,3.136,3.137,3.1469,3.1466,3.1451,3.1451,3.1505,3.1499,3.1682,3.1706,3.1562,3.1563,3.1564,0,3.0759,3.0819,3.0879,3.0919,3.095,3.1014,3.1055,3.1072,3.1115,3.1179,3.1223,3.1292,3.1348,3.1459,3.1491,3.1555,3.1553,3.1613,3.1562,3.1557,3.1552,3.1547,3.1553,3.1621,3.1623,3.1624,3.1625,0,3.0895,3.0905,3.0964,3.1028,3.1077,3.1128,3.1177,3.121,3.1234,3.1283,3.1353,3.1396,3.1482,3.155,3.1615,3.1645,3.1639,3.1641,3.1657,3.1653,3.1642,3.1647,3.1475,3.1636,3.1635,3.1634,3.1634,3.1633,3.099,3.1041,3.1091,3.1157,3.1196,3.1242,3.1294,3.1322,3.1381,3.1452,3.1459,3.1535,3.1584,3.1671,3.1704,3.1763,3.1746,3.177,3.1776,3.1781,3.1784,3.1633,3.1775,3.1775,3.1775,3.1774,3.1774,0,3.1124,3.1156,3.1217,3.1285,3.1337,3.1327,3.1381,3.1424,3.1491,3.1538,3.1592,3.1673,3.1738,3.1776,3.1841,3.1881,3.188,3.1897,3.1894,3.19,3.1796,3.1775,3.1897,3.1897,3.1897,3.1897,3.1897,3.1897,3.12,3.1286,3.1301,3.1406,3.1438,3.1512,3.1543,3.1585,3.1622,3.1712,3.1766,3.179,3.1833,3.1901,3.196,3.1969,3.1993,3.2012,3.2019,3.1921,3.1908,3.1896,3.1876,3.2017,3.2017,3.2118,3.2119,3.212]},{"header":{"parameterUnit":"m.s-1","parameterCategory":1,"la1":30.2991,"la2":30.254,"lo1":-89.0895,"lo2":-89.0444,"dy":0.0017,"dx":0.0017,"nx":28,"ny":28,"refTime":"2024-07-16T03:00:00:Z","depth":0,"parameterNumber":3,"parameterNumberName":"V-component_of_WINDS"},"data":[0,0,0,0,0,0,0,0,0,0,0,0,0,0,0,0,0,0,0,0,0,0,0,0,0,0,0,0,0,0,0,0,0,0,0,0,0,0,0,0,0,0,0,0,0,0,0,0,0,0,0,0,0,0,0,0,0,0,0.0444,0.0444,0,0.0415,0.0414,0.0414,0.0379,0.0379,0.0378,0.0378,0.0348,0.0348,0.0348,0,0,0,0,0,0,0,0,0,0,0,0,0,0.047,0.047,0.0444,0.0444,0.0443,0.0415,0.0414,0.0414,0.0379,0.0379,0.0378,0.0378,0.0348,0.0348,0.0348,0,0,0,0,0,0,0,0,0,0,0,0,0,0.0451,0.047,0.0444,0.0423,0.042,0.0415,0.0414,0.0414,0.038,0.0379,0.0378,0.0377,0.0348,0.0348,0.0348,0.0361,0,0,0.0346,0.0346,0,0,0,0,0,0,0,0,0.0453,0.0451,0.0426,0.0424,0.0422,0.04,0.0412,0.0396,0.038,0.0395,0.0378,0.0377,0.0366,0.0364,0.036,0.0359,0.0358,0.0346,0.0346,0.0346,0.0346,0,0,0,0,0,0,0,0.0454,0.0452,0.0432,0.0426,0.0423,0.0414,0.0411,0.0409,0.0385,0.0394,0.0391,0.0388,0.0365,0.0361,0.0359,0.0358,0.0346,0.0346,0.0345,0.0345,0.0365,0.0366,0,0,0,0,0,0,0.0458,0.0453,0.0433,0.0431,0.0435,0.0415,0.0411,0.0408,0.0385,0.0381,0.0389,0.0387,0.0362,0.036,0.0358,0.0372,0.0346,0.0345,0.0345,0.0364,0.0365,0.0366,0,0,0,0,0,0,0.0459,0.0457,0.0434,0.0441,0.0438,0.0415,0.0412,0.0407,0.0404,0.0382,0.0377,0.0389,0.0361,0.0359,0.036,0.0371,0.0345,0.0345,0.0364,0.0365,0.0366,0.04,0,0,0,0,0,0,0.046,0.0457,0.0462,0.0442,0.0438,0.0437,0.0412,0.0407,0.0403,0.04,0.0381,0.0377,0.036,0.0361,0.036,0.0369,0.0344,0.0363,0.0364,0.0365,0.0398,0.0402,0.0406,0,0,0,0,0,0.0461,0.0473,0.0463,0.0461,0.0443,0.0438,0.0436,0.0416,0.0404,0.0409,0.0394,0.0378,0.0369,0.0361,0.036,0.037,0.0362,0.0364,0.0365,0.0396,0.0401,0.0406,0,0,0,0,0,0,0.0496,0.047,0.0458,0.0464,0.0454,0.0432,0.0438,0.0422,0.0415,0.0412,0.0388,0.0384,0.0389,0.0379,0.0371,0.0381,0.0363,0.0365,0.0387,0.0392,0.0396,0.0399,0.0344,0,0,0,0,0,0.0505,0.0502,0.048,0.0487,0.0482,0.0461,0.0458,0.0444,0.0431,0.0427,0.0413,0.0401,0.0396,0.0393,0.0387,0.0396,0.0391,0.0402,0.0406,0.0409,0.0411,0.0414,0.0419,0.0372,0.0372,0.0372,0,0,0.0522,0.0508,0.0508,0.0494,0.0484,0.0482,0.0457,0.0456,0.0455,0.0427,0.0427,0.0416,0.0402,0.0407,0.0408,0.0399,0.0423,0.0411,0.0414,0.0414,0.0417,0.0421,0.0425,0.0373,0.0373,0.0373,0,0,0.0553,0.0542,0.0547,0.0537,0.0522,0.0507,0.0508,0.0489,0.0481,0.048,0.0459,0.0457,0.0448,0.0439,0.0433,0.0459,0.0444,0.0458,0.048,0.0483,0.0487,0.049,0.05,0.0503,0.046,0.046,0.046,0,0.0577,0.0573,0.0551,0.0552,0.0546,0.052,0.0525,0.0516,0.05,0.0497,0.0486,0.0475,0.0463,0.0466,0.0472,0.0468,0.0469,0.0461,0.0488,0.0491,0.0494,0.0503,0.0506,0.0462,0.0462,0.0461,0.0461,0,0.0603,0.0601,0.0606,0.0591,0.0586,0.0589,0.0567,0.0565,0.055,0.0537,0.0537,0.0522,0.0513,0.0512,0.0498,0.0512,0.0507,0.0493,0.0475,0.05,0.0508,0.0511,0.0464,0.0464,0.0463,0.0463,0,0,0.0657,0.0628,0.0631,0.0624,0.0604,0.0602,0.0603,0.0593,0.0592,0.0581,0.0581,0.0574,0.0561,0.0554,0.0539,0.0542,0.0564,0.0527,0.0527,0.0535,0.0578,0.0589,0.0594,0.0553,0.0554,0.0554,0.0579,0,0.0685,0.0685,0.0665,0.0671,0.0668,0.0643,0.0644,0.0632,0.0619,0.0615,0.06,0.0596,0.0578,0.0574,0.0576,0.0561,0.0572,0.0559,0.0553,0.0553,0.0558,0.0598,0.061,0.0635,0.0582,0.0583,0.0583,0,0.0717,0.0708,0.0714,0.0694,0.0692,0.0693,0.0683,0.0679,0.0665,0.0655,0.0647,0.063,0.0629,0.0611,0.061,0.0601,0.0597,0.059,0.059,0.0589,0.057,0.0599,0.0642,0.0646,0.0588,0.0587,0.0587,0,0.0756,0.0745,0.0747,0.0742,0.0718,0.072,0.071,0.0695,0.069,0.0681,0.0677,0.0668,0.0663,0.0656,0.0636,0.0625,0.0637,0.0617,0.0629,0.0629,0.0633,0.0633,0.0677,0.063,0.063,0.063,0.063,0,0.079,0.0795,0.0764,0.0766,0.077,0.0746,0.0751,0.0739,0.0725,0.0724,0.0701,0.07,0.0673,0.0669,0.0654,0.0655,0.0652,0.0645,0.0641,0.0647,0.0648,0.0645,0.0643,0.0631,0.0631,0.063,0.063,0,0.0835,0.0815,0.0815,0.0792,0.0787,0.0791,0.0772,0.0772,0.0757,0.0755,0.0753,0.073,0.0724,0.0703,0.0692,0.0681,0.0687,0.0679,0.0692,0.069,0.0702,0.0702,0.0746,0.0751,0.07,0.0701,0.0701,0,0.0858,0.0861,0.0838,0.0835,0.0827,0.0822,0.0817,0.0794,0.0789,0.0773,0.0775,0.0767,0.0759,0.075,0.0732,0.0723,0.0715,0.0731,0.0714,0.072,0.0716,0.0716,0.0716,0.0735,0.0736,0.0737,0.0737,0,0.0901,0.0891,0.0884,0.0874,0.0869,0.086,0.0849,0.0848,0.0822,0.0818,0.0811,0.0805,0.0793,0.0785,0.0773,0.0763,0.0746,0.0742,0.0745,0.0752,0.0759,0.0756,0.0703,0.0742,0.0741,0.0741,0.0741,0.074,0.0936,0.0937,0.0922,0.0915,0.0904,0.0895,0.0894,0.0879,0.0873,0.0861,0.0847,0.0842,0.0827,0.0809,0.08,0.0795,0.0786,0.0789,0.079,0.0791,0.0794,0.0759,0.0793,0.0793,0.0792,0.0792,0.0792,0,0.0978,0.0967,0.0961,0.0947,0.0941,0.0925,0.0912,0.0909,0.0905,0.0892,0.0885,0.0877,0.0869,0.085,0.084,0.084,0.0831,0.0838,0.0838,0.0836,0.0803,0.0802,0.0845,0.0845,0.0845,0.0845,0.0845,0.0845,0.1,0.1001,0.0989,0.0984,0.0972,0.0967,0.0961,0.0952,0.0942,0.0934,0.0927,0.0915,0.0899,0.0888,0.088,0.0874,0.0872,0.0881,0.0873,0.0843,0.0838,0.0833,0.0833,0.0881,0.0881,0.0906,0.0906,0.0907]}]]